Kingston, Jamaica

9:11 PM EST on April 26, 2018 (GMT -0500)
Norman Manley International

Weather History for MKJP - February, 2011

Change the Weather History Date:

Saturday, February 19, 2011

  Actual Average Record
Temperature  
Mean Temperature 79 °F -  
Max Temperature 86 °F 84 °F 89 °F (1997)
Min Temperature 72 °F 75 °F 69 °F (2009)
Cooling Degree Days 14    
Growing Degree Days 29 (Base 50)    
Moisture  
Dew Point 62 °F    
Average Humidity 57    
Maximum Humidity 73    
Minimum Humidity 39    
Precipitation  
Precipitation 0.00 in - - ()
Sea Level Pressure  
Sea Level Pressure 29.95 in    
Wind  
Wind Speed 4 mph ()    
Max Wind Speed 9 mph    
Max Gust Speed -    
Visibility 7.6 miles    
Events      
Averages and records for this station are not official NWS values.
T = Trace of Precipitation, MM = Missing Value Source: Averaged Metar Reports

Daily Weather History Graph

Daily Weather History Graph

Search for Another Location

Airport or City:

Astronomy

Feb. 19, 2011 Rise Set
Actual Time 6:32 AM EST 6:09 PM EST
Civil Twilight 6:10 AM EST 6:32 PM EST
Nautical Twilight 5:44 AM EST 6:57 PM EST
Astronomical Twilight 5:19 AM EST 7:22 PM EST
Moon 7:46 PM EST (2/19) 7:15 AM EST (2/19)
Length of Visible Light 12h 21m
Length of Day
11h 37m
Full, 97% of the Moon is Illuminated
Feb 19
Full
Feb 24
Last Quarter
Mar 4
New
Mar 12
First Quarter
Mar 19
Full

Hourly Weather History & Observations

Time (EST) Temp. Heat Index Dew Point Humidity Pressure Visibility Wind Dir Wind Speed Gust Speed Precip Events Conditions
12:00 AM 75.2 °F - 62.6 °F 65% 29.98 in 6.2 mi Variable 1.2 mph - N/A   Partly Cloudy
1:00 AM 75 °F - 60 °F 49% 29.97 in 12 mi NNE 8.1 mph - -   Haze
1:00 AM 75.2 °F - 59.0 °F 57% 29.95 in 6.2 mi NNE 8.1 mph - N/A   Partly Cloudy
2:00 AM 73.4 °F - 62.6 °F 69% 29.92 in 6.2 mi West 3.5 mph - N/A   Partly Cloudy
3:00 AM 73.4 °F - 60.8 °F 65% 29.92 in 6.2 mi NW 4.6 mph - N/A   Partly Cloudy
4:00 AM 73 °F - 63 °F 62% 29.93 in 12 mi WNW 1.2 mph - -   Haze
4:00 AM 73.4 °F - 62.6 °F 69% 29.92 in 6.2 mi Variable 1.2 mph - N/A   Mostly Cloudy
5:00 AM 75.2 °F - 62.6 °F 65% 29.92 in 6.2 mi Variable 1.2 mph - N/A   Scattered Clouds
6:00 AM 73.4 °F - 62.6 °F 69% 29.95 in 6.2 mi North 5.8 mph - N/A   Partly Cloudy
7:00 AM 75 °F - 63 °F 57% 29.97 in 11 mi North 2.3 mph - -   Scattered Clouds
7:00 AM 75.2 °F - 62.6 °F 65% 29.95 in 6.2 mi North 2.3 mph - N/A   Scattered Clouds
8:00 AM 75.2 °F - 60.8 °F 61% 29.98 in 6.2 mi NW 6.9 mph - N/A   Scattered Clouds
9:00 AM 77.0 °F - 60.8 °F 57% 30.01 in 6.2 mi NNW 2.3 mph - N/A   Scattered Clouds
10:00 AM 78 °F - 61 °F 46% 30.01 in 11 mi WSW 4.6 mph - -   Haze
10:00 AM 78.8 °F - 60.8 °F 54% 29.95 in 6.2 mi WSW 4.6 mph - N/A   Scattered Clouds
11:00 AM 78.8 °F - 60.8 °F 54% 29.98 in 6.2 mi SSW 6.9 mph - N/A   Partly Cloudy
12:00 PM 80.6 °F 81.8 °F 62.6 °F 54% 29.95 in 6.2 mi South 6.9 mph - N/A   Partly Cloudy
1:00 PM 80 °F - 63 °F 47% 29.95 in 12 mi South 9.2 mph - -   Haze
1:00 PM 80.6 °F 81.8 °F 62.6 °F 54% 29.95 in 6.2 mi South 9.2 mph - N/A   Scattered Clouds
2:00 PM 80.6 °F 81.5 °F 60.8 °F 51% 29.92 in 6.2 mi South 5.8 mph - N/A   Partly Cloudy
3:00 PM 80.6 °F 81.8 °F 62.6 °F 54% 29.89 in 6.2 mi SSW 4.6 mph - N/A   Scattered Clouds
4:00 PM 82 °F - 61 °F 39% 29.90 in 12 mi South 6.9 mph - -   Partly Cloudy
4:00 PM 82.4 °F 82.9 °F 60.8 °F 48% 29.89 in 6.2 mi South 6.9 mph - N/A   Partly Cloudy
5:00 PM 80.6 °F 81.8 °F 62.6 °F 54% 29.89 in 6.2 mi SSE 6.9 mph - N/A   Mostly Cloudy
6:00 PM 78.8 °F - 62.6 °F 57% 29.92 in 6.2 mi NW 6.9 mph - N/A   Partly Cloudy
7:00 PM 78 °F - 61 °F 45% 29.94 in 12 mi WNW 4.6 mph - -   Haze
7:00 PM 78.8 °F - 60.8 °F 54% 29.92 in 6.2 mi WNW 4.6 mph - N/A   Partly Cloudy
8:00 PM 77.0 °F - 60.8 °F 57% 29.95 in 6.2 mi South 4.6 mph - N/A   Partly Cloudy
9:00 PM 75.2 °F - 60.8 °F 61% 29.95 in 6.2 mi West 5.8 mph - N/A   Partly Cloudy
10:00 PM 75 °F - 62 °F 56% 29.98 in 12 mi West 8.1 mph - -   Haze
10:00 PM 75.2 °F - 62.6 °F 65% 29.98 in 6.2 mi West 8.1 mph - N/A   Partly Cloudy
11:00 PM 73.4 °F - 64.4 °F 73% 29.98 in 6.2 mi WNW 6.9 mph - N/A   Partly Cloudy